This is the latest recevied weather packets stored in our database for station/object NK7E-2. If no packets are shown the sender has not sent any weather packets the latest 1 day(s).
| Time | Temp. | Humidity | Pressure | Rain* | Wind** | Luminosity | Snow |
|---|---|---|---|---|---|---|---|
| 1778046917 | 15° C | 44% | 1019.8 hPa | 0 mm | 0.45 m/s, 293° | - | - |
| 1778043317 | 16.11° C | 41% | 1019.4 hPa | 0 mm | 0.45 m/s, 248° | - | - |
| 1778042117 | 16.67° C | 40% | 1019.2 hPa | 0 mm | 0.45 m/s, 68° | - | - |
| 1778041517 | 16.67° C | 40% | 1019 hPa | 0 mm | 0.89 m/s, 68° | - | - |
| 1778040917 | 16.67° C | 40% | 1018.8 hPa | 0 mm | 0.89 m/s, 90° | - | - |
| 1778040317 | 16.67° C | 40% | 1018.6 hPa | 0 mm | 0.45 m/s, 270° | - | - |
| 1778039717 | 17.22° C | 41% | 1018.5 hPa | 0 mm | 0.45 m/s, 113° | - | - |
| 1778039117 | 17.22° C | 40% | 1018.3 hPa | 0 mm | 0.89 m/s, 338° | - | - |
| 1778038517 | 17.22° C | 40% | 1018.3 hPa | 0 mm | 0.45 m/s, 293° | - | - |
| 1778037917 | 17.22° C | 39% | 1018.2 hPa | 0 mm | 0.45 m/s, 270° | - | - |
| 1778037317 | 17.78° C | 39% | 1018.3 hPa | 0 mm | 1.34 m/s, 293° | - | - |
| 1778036717 | 18.33° C | 36% | 1017.9 hPa | 0 mm | 2.68 m/s, 270° | - | - |
| 1778036117 | 18.33° C | 35% | 1017.7 hPa | 0 mm | 1.79 m/s, 270° | - | - |
| 1778035517 | 18.33° C | 36% | 1017.5 hPa | 0 mm | 2.24 m/s, 270° | - | - |
| 1778034917 | 18.33° C | 36% | 1017.5 hPa | 0 mm | 2.24 m/s, 270° | - | - |
| 1778034317 | 18.33° C | 36% | 1016.8 hPa | 0 mm | 2.68 m/s, 270° | - | - |
| 1778033717 | 18.89° C | 36% | 1017 hPa | 0 mm | 2.68 m/s, 270° | - | - |
| 1778033117 | 18.89° C | 36% | 1016.8 hPa | 0 mm | 2.24 m/s, 270° | - | - |
| 1778032516 | 19.44° C | 36% | 1016.4 hPa | 0 mm | 3.58 m/s, 270° | - | - |
| 1778031917 | 19.44° C | 36% | 1016.6 hPa | 0 mm | 3.58 m/s, 270° | - | - |
| 1778031316 | 20° C | 34% | 1016.6 hPa | 0 mm | 4.02 m/s, 270° | - | - |
| 1778030717 | 20.56° C | 33% | 1016.6 hPa | 0 mm | 3.58 m/s, 270° | - | - |
| 1778030128 | 21.11° C | 31% | 1016.5 hPa | 0 mm | 4.02 m/s, 270° | - | - |
| 1778029516 | 21.11° C | 28% | 1016.4 hPa | 0 mm | 4.47 m/s, 270° | - | - |
| 1778028916 | 21.67° C | 28% | 1016.5 hPa | 0 mm | 4.02 m/s, 248° | - | - |
* Rain latest hour (hover to see other rain measurements)
** Current wind speed in m/s (hover to see current wind gust speed)